Pallaskenry, Ireland
Current Conditions -  °F | °C
As of 3:00 PM on Saturday 25 Oct 2014 (Local Time) from EINN Reporting Station
Broken Clouds Broken Clouds  
Wind Chill: 55°   Ceiling: 5000
Heat Index: 55°   Visibility: 6mi
Dew Point: 43°   Wind: 18mph
Humidity: 63%   Direction: 220°SW
Pressure: 29.88"   Gusts: NA
Location:  52.65°N, 8.87°W
Report Text: EINN 251500Z 22016KT 9999 FEW016 SCT037 BKN050 13/06 Q1012 NOSIG
Loading
Personal Weather Stations






























Interactive Weather Map
Tropical Storm Tracking
New forecast layout! Learn more

10-Day Weather Forecast

Advertisements
Track Severe Weather on mobile